Beaufort MCAS, SC

1:16 PM EDT on July 28, 2017 (GMT -0400)
Beaufort Marine Corps Air Station

Weather History for KNBC - June, 2014

Change the Weather History Date:

Wednesday, June 18, 2014

  Actual Average Record
Temperature  
Mean Temperature 82 °F -  
Max Temperature 91 °F 88 °F 101 °F (1950)
Min Temperature 72 °F 69 °F 58 °F (1938)
Cooling Degree Days 16    
Growing Degree Days 32 (Base 50)    
Moisture  
Dew Point 70 °F    
Average Humidity 72    
Maximum Humidity 93    
Minimum Humidity 43    
Precipitation  
Precipitation 0.00 in - - ()
Sea Level Pressure  
Sea Level Pressure 30.14 in    
Wind  
Wind Speed 2 mph (SW)    
Max Wind Speed 6 mph    
Max Gust Speed -    
Visibility 9 miles    
Events      
Averages and records for this station are not official NWS values.
T = Trace of Precipitation, MM = Missing Value Source: NWS Daily Summary

Daily Weather History Graph

Daily Weather History Graph

Search for Another Location

Airport or City:

Trip Planner

Search our weather history database for the weather conditions in past years. The results will help you decide how hot, cold, wet, or windy it might be!

Date:

Astronomy

Jun. 18, 2014 Rise Set
Actual Time 6:15 AM EDT 8:32 PM EDT
Civil Twilight 5:47 AM EDT 9:01 PM EDT
Nautical Twilight 5:12 AM EDT 9:36 PM EDT
Astronomical Twilight 4:34 AM EDT 10:13 PM EDT
Moon 12:17 AM EDT (6/18) 12:18 PM EDT (6/18)
Length of Visible Light 15h 14m
Length of Day
14h 17m
Waning Gibbous, 63% of the Moon is Illuminated
Jun 18
Waning Gibbous
Jun 19
Last Quarter
Jun 27
New
Jul 5
First Quarter
Jul 12
Full

Hourly Weather History & Observations

Time (EDT) Temp. Heat Index Dew Point Humidity Pressure Visibility Wind Dir Wind Speed Gust Speed Precip Events Conditions
12:56 AM 73.9 °F - 70.0 °F 87% 30.15 in 10.0 mi Calm Calm - N/A   Clear
1:56 AM 73.0 °F - 69.1 °F 87% 30.14 in 10.0 mi West 3.5 mph - N/A   Clear
2:56 AM 73.0 °F - 70.0 °F 90% 30.13 in 10.0 mi WNW 4.6 mph - N/A   Clear
3:56 AM 73.9 °F - 70.0 °F 87% 30.12 in 10.0 mi Calm Calm - N/A   Clear
4:56 AM 73.0 °F - 69.1 °F 87% 30.13 in 10.0 mi NW 3.5 mph - N/A   Clear
5:56 AM 72.0 °F - 70.0 °F 93% 30.14 in 3.0 mi Calm Calm - N/A   Clear
6:04 AM 72.0 °F - 70.0 °F 93% 30.14 in 2.0 mi Calm Calm - N/A   Clear
6:12 AM 73.0 °F - 70.0 °F 90% 30.14 in 9.0 mi Calm Calm - N/A   Clear
6:56 AM 72.0 °F - 70.0 °F 93% 30.15 in 4.0 mi Calm Calm - N/A   Clear
7:56 AM 78.1 °F - 73.9 °F 87% 30.17 in 6.0 mi Calm Calm - N/A   Partly Cloudy
8:56 AM 82.0 °F 86.7 °F 72.0 °F 71% 30.18 in 10.0 mi Variable 3.5 mph - N/A   Scattered Clouds
9:56 AM 82.9 °F 86.5 °F 69.1 °F 63% 30.18 in 10.0 mi West 4.6 mph - N/A   Mostly Cloudy
10:56 AM 87.1 °F 90.6 °F 68.0 °F 53% 30.17 in 10.0 mi Calm Calm - N/A   Mostly Cloudy
11:56 AM 88.0 °F 90.3 °F 66.0 °F 48% 30.17 in 10.0 mi Calm Calm - N/A   Scattered Clouds
12:56 PM 90.0 °F 91.7 °F 64.9 °F 43% 30.16 in 10.0 mi Variable 3.5 mph - N/A   Scattered Clouds
1:56 PM 91.0 °F 96.6 °F 70.0 °F 50% 30.15 in 10.0 mi SSW 4.6 mph - N/A   Scattered Clouds
2:56 PM 90.0 °F 93.6 °F 68.0 °F 48% 30.13 in 10.0 mi SSW 4.6 mph - N/A   Scattered Clouds
3:56 PM 90.0 °F 94.5 °F 69.1 °F 50% 30.12 in 10.0 mi SSW 4.6 mph - N/A   Scattered Clouds
4:56 PM 89.1 °F 94.1 °F 70.0 °F 53% 30.12 in 10.0 mi SSW 5.8 mph - N/A   Scattered Clouds
5:56 PM 88.0 °F 92.9 °F 70.0 °F 55% 30.11 in 10.0 mi SSW 5.8 mph - N/A   Partly Cloudy
6:56 PM 86.0 °F 90.7 °F 70.0 °F 59% 30.12 in 10.0 mi SW 5.8 mph - N/A   Partly Cloudy
7:56 PM 82.9 °F 86.5 °F 69.1 °F 63% 30.12 in 10.0 mi SW 4.6 mph - N/A   Partly Cloudy
8:56 PM 80.1 °F 83.2 °F 70.0 °F 71% 30.12 in 10.0 mi SW 4.6 mph - N/A   Partly Cloudy
9:56 PM 78.1 °F - 71.1 °F 79% 30.13 in 10.0 mi SW 3.5 mph - N/A   Clear
10:56 PM 77.0 °F - 71.1 °F 82% 30.15 in 10.0 mi WSW 3.5 mph - N/A   Clear
11:56 PM 77.0 °F - 72.0 °F 84% 30.15 in 10.0 mi WSW 4.6 mph - N/A   Clear